| time (UTC) | temp F | wind direction | speed MPH | gust MPH | rain 1hr in | rain 24hr in | rain mn in | humidity % | barometer mb |
| 20260901230702 | 65 | -1 | 3.0 | 5.0 | 0.00 | 0.00 | 0.00 | 5 | 1014.7 |
| 20260901230201 | 66 | -1 | 3.0 | 5.0 | 0.00 | 0.00 | 0.00 | 5 | 1014.5 |
| 20260901225700 | 66 | -1 | 4.0 | 6.0 | 0.00 | 0.00 | 0.00 | 5 | 1014.6 |
| 20260901225200 | 66 | -1 | 3.0 | 5.0 | 0.00 | 0.00 | 0.00 | 5 | 1014.5 |
| 20260901224659 | 66 | -1 | 4.0 | 7.0 | 0.00 | 0.00 | 0.00 | 5 | 1014.5 |
| 20260901224158 | 66 | -1 | 4.0 | 9.0 | 0.00 | 0.00 | 0.00 | 5 | 1014.7 |
| 20260901223658 | 67 | -1 | 4.0 | 8.0 | 0.00 | 0.00 | 0.00 | 5 | 1014.6 |
| 20260901223157 | 66 | -1 | 4.0 | 6.0 | 0.00 | 0.00 | 0.00 | 5 | 1014.6 |
| 20260901222656 | 66 | -1 | 4.0 | 9.0 | 0.00 | 0.00 | 0.00 | 5 | 1014.6 |
| 20260901222155 | 65 | -1 | 5.0 | 9.0 | 0.00 | 0.00 | 0.00 | 5 | 1014.8 |
| 20260901221655 | 65 | -1 | 5.0 | 9.0 | 0.00 | 0.00 | 0.00 | 5 | 1014.8 |
| 20260901221154 | 65 | -1 | 5.0 | 8.0 | 0.00 | 0.00 | 0.00 | 5 | 1014.8 |
| 20260901220653 | 65 | -1 | 6.0 | 10.0 | 0.00 | 0.00 | 0.00 | 5 | 1014.8 |
| 20260901220152 | 65 | -1 | 4.0 | 7.0 | 0.00 | 0.00 | 0.00 | 5 | 1014.8 |
| 20260901215652 | 66 | -1 | 3.0 | 5.0 | 0.00 | 0.00 | 0.00 | 5 | 1014.6 |
| 20260901215151 | 67 | -1 | 3.0 | 5.0 | 0.00 | 0.00 | 0.00 | 5 | 1014.5 |
| 20260901214650 | 67 | -1 | 3.0 | 6.0 | 0.00 | 0.00 | 0.00 | 5 | 1014.4 |
| 20260901214150 | 68 | -1 | 3.0 | 6.0 | 0.00 | 0.00 | 0.00 | 5 | 1014.4 |
| 20260901213649 | 67 | -1 | 3.0 | 6.0 | 0.00 | 0.00 | 0.00 | 5 | 1014.4 |
| 20260901213148 | 67 | -1 | 4.0 | 9.0 | 0.00 | 0.00 | 0.00 | 5 | 1014.3 |
| 20260901212647 | 67 | -1 | 4.0 | 7.0 | 0.00 | 0.00 | 0.00 | 5 | 1014.4 |
| 20260901212147 | 67 | -1 | 5.0 | 10.0 | 0.00 | 0.00 | 0.00 | 5 | 1014.5 |
| 20260901211646 | 67 | -1 | 4.0 | 8.0 | 0.00 | 0.00 | 0.00 | 5 | 1014.4 |
| 20260901211145 | 67 | -1 | 4.0 | 7.0 | 0.00 | 0.00 | 0.00 | 5 | 1014.3 |
| 20260901210645 | 68 | -1 | 3.0 | 11.0 | 0.00 | 0.00 | 0.00 | 5 | 1014.1 |
| 20260901210144 | 68 | -1 | 3.0 | 5.0 | 0.00 | 0.00 | 0.00 | 5 | 1014.1 |
| 20260901205643 | 68 | -1 | 3.0 | 9.0 | 0.00 | 0.00 | 0.00 | 5 | 1014.1 |
| 20260901205142 | 68 | -1 | 3.0 | 6.0 | 0.00 | 0.00 | 0.00 | 5 | 1014.2 |
| 20260901204642 | 68 | -1 | 3.0 | 5.0 | 0.00 | 0.00 | 0.00 | 5 | 1014.2 |
| 20260901204141 | 68 | -1 | 3.0 | 6.0 | 0.00 | 0.00 | 0.00 | 5 | 1014.1 |
| 20260901203640 | 69 | -1 | 3.0 | 4.0 | 0.00 | 0.00 | 0.00 | 5 | 1014.0 |
| 20260901203139 | 69 | 202 | 3.0 | 6.0 | 0.00 | 0.00 | 0.00 | 5 | 1014.0 |
| 20260901202639 | 69 | -1 | 4.0 | 8.0 | 0.00 | 0.00 | 0.00 | 5 | 1013.9 |
| 20260901202138 | 70 | 202 | 3.0 | 6.0 | 0.00 | 0.00 | 0.00 | 5 | 1013.8 |
| 20260901201637 | 71 | 180 | 4.0 | 9.0 | 0.00 | 0.00 | 0.00 | 4 | 1013.7 |
| 20260901201137 | 70 | 180 | 2.0 | 3.0 | 0.00 | 0.00 | 0.00 | 5 | 1013.8 |
| 20260901200636 | 70 | -1 | 0.0 | 3.0 | 0.00 | 0.00 | 0.00 | 5 | 1013.8 |
| 20260901200135 | 69 | -1 | 0.0 | 3.0 | 0.00 | 0.00 | 0.00 | 5 | 1013.9 |
| 20260901195634 | 69 | -1 | 0.0 | 3.0 | 0.00 | 0.00 | 0.00 | 5 | 1014.0 |
| 20260901195134 | 69 | -1 | 3.0 | 4.0 | 0.00 | 0.00 | 0.00 | 5 | 1014.0 |
| 20260901194633 | 69 | -1 | 3.0 | 3.0 | 0.00 | 0.00 | 0.00 | 5 | 1013.9 |
| 20260901194132 | 69 | -1 | 0.0 | 3.0 | 0.00 | 0.00 | 0.00 | 5 | 1013.9 |
| 20260901193631 | 68 | -1 | 0.0 | 3.0 | 0.00 | 0.00 | 0.00 | 5 | 1014.0 |
| 20260901193131 | 68 | -1 | 3.0 | 4.0 | 0.00 | 0.00 | 0.00 | 5 | 1014.0 |
| 20260901192630 | 68 | -1 | 3.0 | 4.0 | 0.00 | 0.00 | 0.00 | 5 | 1014.0 |
| 20260901192129 | 68 | -1 | 3.0 | 3.0 | 0.00 | 0.00 | 0.00 | 5 | 1014.0 |
| 20260901191629 | 68 | -1 | 3.0 | 3.0 | 0.00 | 0.00 | 0.00 | 5 | 1014.0 |
| 20260901191128 | 68 | -1 | 0.0 | 4.0 | 0.00 | 0.00 | 0.00 | 5 | 1014.0 |
| 20260901190627 | 69 | -1 | 3.0 | 4.0 | 0.00 | 0.00 | 0.00 | 5 | 1013.9 |
| 20260901190126 | 68 | -1 | 2.0 | 4.0 | 0.00 | 0.00 | 0.00 | 5 | 1013.9 |
| 20260901185626 | 68 | -1 | 3.0 | 3.0 | 0.00 | 0.00 | 0.00 | 5 | 1013.9 |
| 20260901185125 | 68 | -1 | 0.0 | 0.0 | 0.00 | 0.00 | 0.00 | 5 | 1013.9 |
| 20260901184624 | 69 | -1 | 0.0 | 0.0 | 0.00 | 0.00 | 0.00 | 5 | 1013.8 |
| 20260901184125 | 69 | -1 | 2.0 | 3.0 | 0.00 | 0.00 | 0.00 | 5 | 1013.8 |
| 20260901183623 | 69 | -1 | 3.0 | 4.0 | 0.00 | 0.00 | 0.00 | 5 | 1013.8 |
| 20260901183122 | 68 | -1 | 3.0 | 4.0 | 0.00 | 0.00 | 0.00 | 5 | 1013.8 |
| 20260901182621 | 68 | -1 | 3.0 | 4.0 | 0.00 | 0.00 | 0.00 | 5 | 1013.7 |
| 20260901182120 | 69 | -1 | 3.0 | 5.0 | 0.00 | 0.00 | 0.00 | 5 | 1013.6 |
| 20260901181620 | 69 | -1 | 3.0 | 4.0 | 0.00 | 0.00 | 0.00 | 5 | 1013.5 |
| 20260901181119 | 70 | -1 | 3.0 | 4.0 | 0.00 | 0.00 | 0.00 | 5 | 1013.4 |
| 20260901180618 | 70 | -1 | 0.0 | 3.0 | 0.00 | 0.00 | 0.00 | 4 | 1013.3 |
| 20260901180118 | 71 | -1 | 0.0 | 0.0 | 0.00 | 0.00 | 0.00 | 4 | 1013.1 |
| 20260901175617 | 72 | -1 | 0.0 | 0.0 | 0.00 | 0.00 | 0.00 | 4 | 1012.8 |
| 20260901175116 | 73 | -1 | 0.0 | 0.0 | 0.00 | 0.00 | 0.00 | 4 | 1012.7 |
| 20260901174615 | 74 | -1 | 3.0 | 0.0 | 0.00 | 0.00 | 0.00 | 4 | 1012.4 |
| 20260901174115 | 74 | -1 | 3.0 | 4.0 | 0.00 | 0.00 | 0.00 | 4 | 1012.3 |
| 20260901173614 | 75 | -1 | 3.0 | 4.0 | 0.00 | 0.00 | 0.00 | 4 | 1012.2 |
| 20260901173113 | 76 | -1 | 3.0 | 5.0 | 0.00 | 0.00 | 0.00 | 4 | 1012.0 |
| 20260901172612 | 77 | -1 | 4.0 | 8.0 | 0.00 | 0.00 | 0.00 | 3 | 1011.9 |
| 20260901172111 | 78 | -1 | 3.0 | 6.0 | 0.00 | 0.00 | 0.00 | 3 | 1011.6 |
| 20260901171611 | 78 | -1 | 3.0 | 6.0 | 0.00 | 0.00 | 0.00 | 3 | 1011.6 |
| 20260901171110 | 78 | -1 | 5.0 | 9.0 | 0.00 | 0.00 | 0.00 | 3 | 1011.7 |
| 20260901170609 | 79 | -1 | 3.0 | 7.0 | 0.00 | 0.00 | 0.00 | 3 | 1011.5 |
| 20260901170109 | 78 | -1 | 4.0 | 9.0 | 0.00 | 0.00 | 0.00 | 3 | 1011.8 |
| 20260901165608 | 78 | -1 | 4.0 | 8.0 | 0.00 | 0.00 | 0.00 | 3 | 1011.7 |
| 20260901165107 | 83 | -1 | 3.0 | 5.0 | 0.00 | 0.00 | 0.00 | 3 | 1010.8 |
| 20260901164606 | 82 | 247 | 3.0 | 5.0 | 0.00 | 0.00 | 0.00 | 3 | 1010.8 |
| 20260901164105 | 80 | 247 | 2.0 | 3.0 | 0.00 | 0.00 | 0.00 | 3 | 1011.2 |
| 20260901163605 | 79 | -1 | 4.0 | 8.0 | 0.00 | 0.00 | 0.00 | 3 | 1011.4 |
| 20260901163104 | 78 | -1 | 4.0 | 8.0 | 0.00 | 0.00 | 0.00 | 3 | 1011.7 |
| 20260901162603 | 78 | 315 | 5.0 | 11.0 | 0.00 | 0.00 | 0.00 | 3 | 1011.6 |
| 20260901162103 | 82 | 247 | 5.0 | 14.0 | 0.00 | 0.00 | 0.00 | 3 | 1011.0 |
| 20260901161602 | 82 | -1 | 4.0 | 7.0 | 0.00 | 0.00 | 0.00 | 3 | 1010.7 |
| 20260901161101 | 82 | 247 | 3.0 | 7.0 | 0.00 | 0.00 | 0.00 | 3 | 1010.9 |
| 20260901160600 | 80 | 247 | 5.0 | 11.0 | 0.00 | 0.00 | 0.00 | 3 | 1011.2 |
| 20260901160100 | 79 | 247 | 6.0 | 13.0 | 0.00 | 0.00 | 0.00 | 3 | 1011.5 |
| 20260901155559 | 79 | -1 | 6.0 | 15.0 | 0.00 | 0.00 | 0.00 | 3 | 1011.4 |
| 20260901155058 | 80 | -1 | 6.0 | 14.0 | 0.00 | 0.00 | 0.00 | 3 | 1011.2 |
| 20260901154557 | 85 | 180 | 4.0 | 9.0 | 0.00 | 0.00 | 0.00 | 3 | 1010.3 |
| 20260901154057 | 81 | 247 | 4.0 | 10.0 | 0.00 | 0.00 | 0.00 | 3 | 1011.0 |
| 20260901153556 | 85 | 247 | 4.0 | 7.0 | 0.00 | 0.00 | 0.00 | 2 | 1010.3 |
| 20260901153055 | 83 | 247 | 4.0 | 10.0 | 0.00 | 0.00 | 0.00 | 3 | 1010.8 |
| 20260901152555 | 83 | -1 | 4.0 | 8.0 | 0.00 | 0.00 | 0.00 | 3 | 1010.8 |
| 20260901152054 | 85 | -1 | 5.0 | 10.0 | 0.00 | 0.00 | 0.00 | 2 | 1010.4 |
| 20260901151553 | 87 | 180 | 5.0 | 11.0 | 0.00 | 0.00 | 0.00 | 2 | 1009.9 |
| 20260901151052 | 86 | -1 | 4.0 | 9.0 | 0.00 | 0.00 | 0.00 | 2 | 1010.1 |
| 20260901150552 | 84 | 247 | 4.0 | 7.0 | 0.00 | 0.00 | 0.00 | 3 | 1010.5 |
| 20260901150051 | 83 | 247 | 4.0 | 9.0 | 0.00 | 0.00 | 0.00 | 3 | 1010.8 |
| 20260901145550 | 80 | 0 | 3.0 | 6.0 | 0.00 | 0.00 | 0.00 | 3 | 1011.2 |
| 20260901145049 | 78 | -1 | 2.0 | 3.0 | 0.00 | 0.00 | 0.00 | 3 | 1011.7 |
| 20260901144549 | 77 | -1 | 3.0 | 5.0 | 0.00 | 0.00 | 0.00 | 3 | 1011.8 |
| 20260901144048 | 77 | -1 | 7.0 | 13.0 | 0.00 | 0.00 | 0.00 | 3 | 1012.0 |
| 20260901143547 | 80 | 247 | 5.0 | 14.0 | 0.00 | 0.00 | 0.00 | 3 | 1011.4 |
| 20260901143046 | 82 | 67 | 5.0 | 12.0 | 0.00 | 0.00 | 0.00 | 3 | 1011.0 |
| 20260901142546 | 84 | 180 | 6.0 | 14.0 | 0.00 | 0.00 | 0.00 | 2 | 1010.7 |
| 20260901142045 | 83 | -1 | 8.0 | 16.0 | 0.00 | 0.00 | 0.00 | 2 | 1010.9 |
| 20260901141544 | 84 | 67 | 6.0 | 13.0 | 0.00 | 0.00 | 0.00 | 2 | 1010.6 |
| 20260901141044 | 85 | -1 | 6.0 | 13.0 | 0.00 | 0.00 | 0.00 | 2 | 1010.6 |
| 20260901140543 | 85 | -1 | 7.0 | 16.0 | 0.00 | 0.00 | 0.00 | 2 | 1010.7 |
| 20260901140042 | 86 | -1 | 4.0 | 8.0 | 0.00 | 0.00 | 0.00 | 2 | 1010.5 |
| 20260901135541 | 85 | 67 | 5.0 | 11.0 | 0.00 | 0.00 | 0.00 | 3 | 1010.6 |
| 20260901135041 | 83 | 67 | 7.0 | 14.0 | 0.00 | 0.00 | 0.00 | 3 | 1010.9 |
| 20260901134540 | 84 | -1 | 7.0 | 17.0 | 0.00 | 0.00 | 0.00 | 3 | 1010.9 |
| 20260901134039 | 83 | -1 | 9.0 | 16.0 | 0.00 | 0.00 | 0.00 | 3 | 1011.1 |
| 20260901133539 | 85 | -1 | 5.0 | 14.0 | 0.00 | 0.00 | 0.00 | 2 | 1010.6 |
| 20260901133038 | 83 | -1 | 9.0 | 19.0 | 0.00 | 0.00 | 0.00 | 3 | 1011.0 |
| 20260901132537 | 83 | -1 | 6.0 | 12.0 | 0.00 | 0.00 | 0.00 | 3 | 1011.0 |
| 20260901132036 | 80 | -1 | 6.0 | 15.0 | 0.00 | 0.00 | 0.00 | 4 | 1011.7 |
| 20260901131536 | 79 | -1 | 7.0 | 17.0 | 0.00 | 0.00 | 0.00 | 3 | 1011.8 |
| 20260901131035 | 79 | -1 | 7.0 | 16.0 | 0.00 | 0.00 | 0.00 | 3 | 1012.0 |
| 20260901130534 | 80 | -1 | 8.0 | 18.0 | 0.00 | 0.00 | 0.00 | 3 | 1011.9 |
| 20260901130033 | 81 | -1 | 4.0 | 12.0 | 0.00 | 0.00 | 0.00 | 3 | 1011.6 |
| 20260901125533 | 80 | 67 | 6.0 | 12.0 | 0.00 | 0.00 | 0.00 | 4 | 1011.6 |
| 20260901125032 | 78 | -1 | 5.0 | 12.0 | 0.00 | 0.00 | 0.00 | 4 | 1012.2 |
| 20260901124531 | 76 | -1 | 8.0 | 20.0 | 0.00 | 0.00 | 0.00 | 4 | 1012.4 |
| 20260901124031 | 76 | -1 | 6.0 | 16.0 | 0.00 | 0.00 | 0.00 | 4 | 1012.5 |
| 20260901123530 | 78 | -1 | 7.0 | 15.0 | 0.00 | 0.00 | 0.00 | 3 | 1012.3 |
| 20260901123029 | 81 | -1 | 4.0 | 8.0 | 0.00 | 0.00 | 0.00 | 3 | 1011.6 |
| 20260901122528 | 81 | -1 | 4.0 | 10.0 | 0.00 | 0.00 | 0.00 | 3 | 1011.7 |
| 20260901122028 | 77 | -1 | 4.0 | 7.0 | 0.00 | 0.00 | 0.00 | 4 | 1012.3 |
| 20260901121527 | 77 | -1 | 4.0 | 8.0 | 0.00 | 0.00 | 0.00 | 4 | 1012.4 |
| 20260901121026 | 77 | -1 | 4.0 | 9.0 | 0.00 | 0.00 | 0.00 | 4 | 1012.4 |
| 20260901120525 | 75 | -1 | 5.0 | 11.0 | 0.00 | 0.00 | 0.00 | 4 | 1012.7 |
| 20260901120025 | 76 | -1 | 4.0 | 12.0 | 0.00 | 0.00 | 0.00 | 4 | 1012.6 |
| 20260901115524 | 74 | -1 | 5.0 | 11.0 | 0.00 | 0.00 | 0.00 | 4 | 1013.0 |
| 20260901115023 | 75 | -1 | 4.0 | 7.0 | 0.00 | 0.00 | 0.00 | 4 | 1012.8 |
| 20260901114522 | 76 | -1 | 5.0 | 9.0 | 0.00 | 0.00 | 0.00 | 4 | 1012.8 |
| 20260901114022 | 78 | -1 | 6.0 | 13.0 | 0.00 | 0.00 | 0.00 | 4 | 1012.5 |
| 20260901113521 | 77 | -1 | 5.0 | 12.0 | 0.00 | 0.00 | 0.00 | 4 | 1012.5 |
| 20260901113020 | 75 | -1 | 6.0 | 12.0 | 0.00 | 0.00 | 0.00 | 4 | 1013.0 |
| 20260901112520 | 75 | -1 | 5.0 | 11.0 | 0.00 | 0.00 | 0.00 | 4 | 1012.9 |
| 20260901112019 | 74 | -1 | 5.0 | 13.0 | 0.00 | 0.00 | 0.00 | 4 | 1013.0 |
| 20260901111518 | 72 | -1 | 6.0 | 15.0 | 0.00 | 0.00 | 0.00 | 4 | 1013.5 |
| 20260901111017 | 73 | -1 | 6.0 | 14.0 | 0.00 | 0.00 | 0.00 | 4 | 1013.3 |
| 20260901110517 | 74 | -1 | 6.0 | 13.0 | 0.00 | 0.00 | 0.00 | 4 | 1013.0 |
| 20260901110016 | 73 | -1 | 8.0 | 15.0 | 0.00 | 0.00 | 0.00 | 4 | 1013.2 |
| 20260901105515 | 74 | -1 | 8.0 | 14.0 | 0.00 | 0.00 | 0.00 | 4 | 1012.9 |
| 20260901105015 | 76 | -1 | 5.0 | 13.0 | 0.00 | 0.00 | 0.00 | 4 | 1012.5 |
| 20260901104514 | 72 | -1 | 7.0 | 14.0 | 0.00 | 0.00 | 0.00 | 5 | 1013.3 |
| 20260901104013 | 71 | -1 | 8.0 | 16.0 | 0.00 | 0.00 | 0.00 | 4 | 1013.5 |
| 20260901103512 | 73 | -1 | 7.0 | 22.0 | 0.00 | 0.00 | 0.00 | 4 | 1013.2 |
| 20260901103012 | 75 | -1 | 7.0 | 14.0 | 0.00 | 0.00 | 0.00 | 5 | 1012.8 |
| 20260901102511 | 76 | -1 | 7.0 | 14.0 | 0.00 | 0.00 | 0.00 | 4 | 1012.6 |
| 20260901102010 | 74 | -1 | 5.0 | 14.0 | 0.00 | 0.00 | 0.00 | 4 | 1012.7 |
| 20260901101510 | 75 | -1 | 8.0 | 12.0 | 0.00 | 0.00 | 0.00 | 4 | 1012.8 |
| 20260901101009 | 76 | -1 | 8.0 | 17.0 | 0.00 | 0.00 | 0.00 | 4 | 1012.5 |
| 20260901100508 | 75 | -1 | 6.0 | 12.0 | 0.00 | 0.00 | 0.00 | 4 | 1012.6 |
| 20260901100007 | 73 | -1 | 8.0 | 15.0 | 0.00 | 0.00 | 0.00 | 4 | 1012.9 |
| 20260901095507 | 74 | -1 | 6.0 | 17.0 | 0.00 | 0.00 | 0.00 | 4 | 1012.8 |
| 20260901095006 | 75 | -1 | 5.0 | 10.0 | 0.00 | 0.00 | 0.00 | 4 | 1012.5 |
| 20260901094505 | 75 | -1 | 6.0 | 12.0 | 0.00 | 0.00 | 0.00 | 4 | 1012.6 |
| 20260901094005 | 74 | -1 | 8.0 | 16.0 | 0.00 | 0.00 | 0.00 | 4 | 1012.7 |
| 20260901093504 | 74 | -1 | 7.0 | 16.0 | 0.00 | 0.00 | 0.00 | 4 | 1012.6 |
| 20260901093003 | 71 | -1 | 8.0 | 18.0 | 0.00 | 0.00 | 0.00 | 4 | 1013.2 |
| 20260901092502 | 72 | -1 | 5.0 | 12.0 | 0.00 | 0.00 | 0.00 | 5 | 1012.9 |
| 20260901092002 | 70 | -1 | 7.0 | 18.0 | 0.00 | 0.00 | 0.00 | 5 | 1013.5 |
| 20260901091501 | 69 | -1 | 10.0 | 20.0 | 0.00 | 0.00 | 0.00 | 5 | 1013.6 |
| 20260901091000 | 71 | -1 | 11.0 | 20.0 | 0.00 | 0.00 | 0.00 | 5 | 1013.3 |
| 20260901090459 | 72 | -1 | 8.0 | 20.0 | 0.00 | 0.00 | 0.00 | 4 | 1013.1 |
| 20260901085959 | 71 | -1 | 11.0 | 21.0 | 0.00 | 0.00 | 0.00 | 5 | 1013.2 |
| 20260901085458 | 70 | -1 | 11.0 | 23.0 | 0.00 | 0.00 | 0.00 | 5 | 1013.3 |
| 20260901084957 | 73 | -1 | 8.0 | 18.0 | 0.00 | 0.00 | 0.00 | 4 | 1012.8 |
| 20260901084457 | 73 | -1 | 7.0 | 17.0 | 0.00 | 0.00 | 0.00 | 4 | 1012.6 |
| 20260901083956 | 71 | -1 | 9.0 | 22.0 | 0.00 | 0.00 | 0.00 | 5 | 1013.1 |
| 20260901083455 | 71 | -1 | 9.0 | 19.0 | 0.00 | 0.00 | 0.00 | 5 | 1013.1 |
| 20260901082954 | 69 | -1 | 9.0 | 17.0 | 0.00 | 0.00 | 0.00 | 5 | 1013.3 |
| 20260901082454 | 71 | -1 | 8.0 | 19.0 | 0.00 | 0.00 | 0.00 | 5 | 1012.9 |
| 20260901081953 | 71 | -1 | 5.0 | 13.0 | 0.00 | 0.00 | 0.00 | 5 | 1013.0 |
| 20260901081452 | 70 | -1 | 8.0 | 18.0 | 0.00 | 0.00 | 0.00 | 5 | 1013.0 |
| 20260901080951 | 69 | -1 | 7.0 | 17.0 | 0.00 | 0.00 | 0.00 | 5 | 1013.2 |
| 20260901080451 | 69 | -1 | 7.0 | 16.0 | 0.00 | 0.00 | 0.00 | 5 | 1013.0 |
| 20260901075950 | 69 | -1 | 8.0 | 15.0 | 0.00 | 0.00 | 0.00 | 5 | 1013.1 |
| 20260901075449 | 69 | -1 | 7.0 | 16.0 | 0.00 | 0.00 | 0.00 | 5 | 1012.9 |
| 20260901074949 | 68 | -1 | 10.0 | 22.0 | 0.00 | 0.00 | 0.00 | 6 | 1013.1 |
| 20260901074448 | 68 | -1 | 10.0 | 21.0 | 0.00 | 0.00 | 0.00 | 5 | 1013.0 |
| 20260901073947 | 70 | -1 | 9.0 | 17.0 | 0.00 | 0.00 | 0.00 | 5 | 1012.7 |
| 20260901073446 | 69 | -1 | 7.0 | 15.0 | 0.00 | 0.00 | 0.00 | 5 | 1012.6 |
| 20260901072946 | 70 | -1 | 8.0 | 14.0 | 0.00 | 0.00 | 0.00 | 5 | 1012.7 |
| 20260901072445 | 69 | -1 | 6.0 | 13.0 | 0.00 | 0.00 | 0.00 | 5 | 1012.8 |
| 20260901071944 | 67 | -1 | 8.0 | 19.0 | 0.00 | 0.00 | 0.00 | 6 | 1013.0 |
| 20260901071443 | 69 | -1 | 8.0 | 16.0 | 0.00 | 0.00 | 0.00 | 5 | 1012.7 |
| 20260901070943 | 68 | -1 | 9.0 | 18.0 | 0.00 | 0.00 | 0.00 | 5 | 1012.7 |
| 20260901070442 | 67 | -1 | 7.0 | 13.0 | 0.00 | 0.00 | 0.00 | 6 | 1013.0 |
| 20260901065941 | 67 | -1 | 9.0 | 18.0 | 0.00 | 0.00 | 0.00 | 6 | 1013.0 |
| 20260901065441 | 69 | -1 | 6.0 | 15.0 | 0.00 | 0.00 | 0.00 | 6 | 1012.6 |
| 20260901064940 | 70 | -1 | 6.0 | 12.0 | 0.00 | 0.00 | 0.00 | 5 | 1012.4 |
| 20260901064439 | 68 | -1 | 9.0 | 19.0 | 0.00 | 0.00 | 0.00 | 6 | 1012.8 |
| 20260901063938 | 67 | -1 | 8.0 | 16.0 | 0.00 | 0.00 | 0.00 | 6 | 1013.0 |
| 20260901063438 | 68 | -1 | 7.0 | 13.0 | 0.00 | 0.00 | 0.00 | 6 | 1012.8 |
| 20260901062937 | 68 | -1 | 6.0 | 13.0 | 0.00 | 0.00 | 0.00 | 6 | 1012.7 |
| 20260901062436 | 69 | -1 | 6.0 | 14.0 | 0.00 | 0.00 | 0.00 | 6 | 1012.6 |
| 20260901061935 | 68 | -1 | 5.0 | 10.0 | 0.00 | 0.00 | 0.00 | 6 | 1012.6 |
| 20260901061435 | 68 | -1 | 7.0 | 14.0 | 0.00 | 0.00 | 0.00 | 6 | 1012.5 |
| 20260901060934 | 67 | -1 | 5.0 | 12.0 | 0.00 | 0.00 | 0.00 | 6 | 1012.7 |
| 20260901060433 | 68 | -1 | 6.0 | 12.0 | 0.00 | 0.00 | 0.00 | 6 | 1012.5 |
| 20260901055933 | 66 | -1 | 7.0 | 15.0 | 0.00 | 0.00 | 0.00 | 6 | 1012.8 |
| 20260901055432 | 66 | -1 | 7.0 | 13.0 | 0.00 | 0.00 | 0.00 | 6 | 1012.8 |
| 20260901054931 | 66 | -1 | 8.0 | 14.0 | 0.00 | 0.00 | 0.00 | 6 | 1012.8 |
| 20260901054430 | 66 | -1 | 7.0 | 13.0 | 0.00 | 0.00 | 0.00 | 6 | 1012.7 |
| 20260901053930 | 66 | -1 | 6.0 | 16.0 | 0.00 | 0.00 | 0.00 | 6 | 1012.7 |
| 20260901053429 | 66 | -1 | 6.0 | 13.0 | 0.00 | 0.00 | 0.00 | 6 | 1012.8 |
| 20260901052928 | 65 | -1 | 7.0 | 15.0 | 0.00 | 0.00 | 0.00 | 6 | 1012.8 |
| 20260901052428 | 66 | -1 | 7.0 | 13.0 | 0.00 | 0.00 | 0.00 | 6 | 1012.6 |
| 20260901051927 | 67 | 180 | 5.0 | 10.0 | 0.00 | 0.00 | 0.00 | 6 | 1012.5 |
| 20260901051426 | 66 | 180 | 4.0 | 9.0 | 0.00 | 0.00 | 0.00 | 6 | 1012.6 |
| 20260901050925 | 66 | 180 | 4.0 | 11.0 | 0.00 | 0.00 | 0.00 | 6 | 1012.6 |
| 20260901050425 | 65 | 180 | 6.0 | 12.0 | 0.00 | 0.00 | 0.00 | 6 | 1012.8 |
| 20260901045924 | 64 | 180 | 4.0 | 10.0 | 0.00 | 0.00 | 0.00 | 6 | 1012.8 |
| 20260901045423 | 64 | -1 | 5.0 | 10.0 | 0.00 | 0.00 | 0.00 | 6 | 1012.8 |
| 20260901044923 | 64 | 180 | 6.0 | 13.0 | 0.00 | 0.00 | 0.00 | 6 | 1012.8 |
| 20260901044422 | 64 | 180 | 6.0 | 11.0 | 0.00 | 0.00 | 0.00 | 6 | 1012.8 |
| 20260901043921 | 64 | 180 | 5.0 | 9.0 | 0.00 | 0.00 | 0.00 | 6 | 1012.7 |
| 20260901043420 | 63 | 180 | 6.0 | 10.0 | 0.00 | 0.00 | 0.00 | 7 | 1012.9 |
| 20260901042920 | 63 | -1 | 6.0 | 13.0 | 0.00 | 0.00 | 0.00 | 7 | 1012.9 |
| 20260901042419 | 63 | 180 | 5.0 | 10.0 | 0.00 | 0.00 | 0.00 | 7 | 1012.8 |
| 20260901041918 | 63 | 180 | 5.0 | 11.0 | 0.00 | 0.00 | 0.00 | 7 | 1012.8 |
| 20260901041418 | 62 | -1 | 6.0 | 12.0 | 0.00 | 0.00 | 0.00 | 7 | 1012.9 |
| 20260901040917 | 62 | -1 | 6.0 | 13.0 | 0.00 | 0.00 | 0.00 | 7 | 1013.1 |
| 20260901040416 | 62 | -1 | 6.0 | 10.0 | 0.00 | 0.00 | 0.00 | 7 | 1013.0 |
| 20260901035915 | 63 | -1 | 6.0 | 10.0 | 0.00 | 0.00 | 0.00 | 7 | 1012.8 |
| 20260901035415 | 63 | 180 | 6.0 | 12.0 | 0.00 | 0.00 | 0.00 | 7 | 1012.8 |
| 20260901034914 | 63 | -1 | 6.0 | 13.0 | 0.00 | 0.00 | 0.00 | 7 | 1012.7 |
| 20260901034413 | 63 | 180 | 5.0 | 11.0 | 0.00 | 0.00 | 0.00 | 7 | 1012.8 |
| 20260901033913 | 63 | 180 | 6.0 | 10.0 | 0.00 | 0.00 | 0.00 | 7 | 1012.6 |
| 20260901033412 | 63 | 180 | 6.0 | 13.0 | 0.00 | 0.00 | 0.00 | 7 | 1012.6 |
| 20260901032911 | 63 | -1 | 5.0 | 11.0 | 0.00 | 0.00 | 0.00 | 7 | 1012.6 |
| 20260901032410 | 64 | 180 | 5.0 | 12.0 | 0.00 | 0.00 | 0.00 | 7 | 1012.6 |
| 20260901031910 | 64 | 180 | 5.0 | 12.0 | 0.00 | 0.00 | 0.00 | 7 | 1012.5 |
| 20260901031409 | 64 | 180 | 4.0 | 10.0 | 0.00 | 0.00 | 0.00 | 6 | 1012.3 |
| 20260901030908 | 64 | -1 | 5.0 | 12.0 | 0.00 | 0.00 | 0.00 | 7 | 1012.5 |
| 20260901030407 | 64 | -1 | 6.0 | 11.0 | 0.00 | 0.00 | 0.00 | 6 | 1012.3 |
| 20260901025907 | 64 | -1 | 7.0 | 15.0 | 0.00 | 0.00 | 0.00 | 7 | 1012.4 |
| 20260901025406 | 64 | -1 | 7.0 | 14.0 | 0.00 | 0.00 | 0.00 | 6 | 1012.3 |
| 20260901024905 | 65 | -1 | 7.0 | 14.0 | 0.00 | 0.00 | 0.00 | 6 | 1012.2 |
| 20260901024405 | 65 | -1 | 7.0 | 15.0 | 0.00 | 0.00 | 0.00 | 6 | 1012.3 |
| 20260901023904 | 64 | 180 | 8.0 | 14.0 | 0.00 | 0.00 | 0.00 | 6 | 1012.3 |
| 20260901023403 | 64 | 180 | 8.0 | 15.0 | 0.00 | 0.00 | 0.00 | 6 | 1012.3 |
| 20260901022903 | 64 | 180 | 9.0 | 18.0 | 0.00 | 0.00 | 0.00 | 6 | 1012.3 |
| 20260901022402 | 64 | -1 | 9.0 | 17.0 | 0.00 | 0.00 | 0.00 | 6 | 1012.3 |
| 20260901021901 | 64 | 180 | 8.0 | 17.0 | 0.00 | 0.00 | 0.00 | 6 | 1012.3 |
| 20260901021400 | 65 | -1 | 7.0 | 14.0 | 0.00 | 0.00 | 0.00 | 6 | 1012.2 |
| 20260901020900 | 64 | -1 | 7.0 | 15.0 | 0.00 | 0.00 | 0.00 | 6 | 1012.2 |
| 20260901020359 | 64 | 180 | 9.0 | 16.0 | 0.00 | 0.00 | 0.00 | 6 | 1012.1 |
| 20260901015858 | 64 | 180 | 8.0 | 15.0 | 0.00 | 0.00 | 0.00 | 6 | 1012.1 |
| 20260901015358 | 64 | -1 | 8.0 | 18.0 | 0.00 | 0.00 | 0.00 | 6 | 1012.1 |
| 20260901014857 | 64 | 180 | 9.0 | 18.0 | 0.00 | 0.00 | 0.00 | 6 | 1012.0 |
| 20260901014356 | 65 | -1 | 8.0 | 15.0 | 0.00 | 0.00 | 0.00 | 6 | 1012.0 |
| 20260901013855 | 65 | 180 | 8.0 | 16.0 | 0.00 | 0.00 | 0.00 | 6 | 1011.9 |
| 20260901013355 | 65 | 180 | 8.0 | 18.0 | 0.00 | 0.00 | 0.00 | 6 | 1011.9 |
| 20260901012854 | 65 | 180 | 4.0 | 11.0 | 0.00 | 0.00 | 0.00 | 6 | 1011.9 |
| 20260901012353 | 65 | -1 | 4.0 | 7.0 | 0.00 | 0.00 | 0.00 | 6 | 1012.0 |
| 20260901011853 | 64 | -1 | 4.0 | 7.0 | 0.00 | 0.00 | 0.00 | 6 | 1012.1 |
| 20260901011352 | 64 | 180 | 4.0 | 10.0 | 0.00 | 0.00 | 0.00 | 6 | 1012.0 |
| 20260901010851 | 64 | -1 | 5.0 | 12.0 | 0.00 | 0.00 | 0.00 | 6 | 1012.0 |
| 20260901010350 | 64 | 180 | 6.0 | 15.0 | 0.00 | 0.00 | 0.00 | 6 | 1012.0 |
| 20260901005850 | 64 | 180 | 6.0 | 12.0 | 0.00 | 0.00 | 0.00 | 6 | 1011.9 |
| 20260901005349 | 65 | -1 | 7.0 | 12.0 | 0.00 | 0.00 | 0.00 | 6 | 1011.7 |
| 20260901004848 | 65 | 180 | 6.0 | 13.0 | 0.00 | 0.00 | 0.00 | 6 | 1011.8 |
| 20260901004348 | 64 | 180 | 6.0 | 11.0 | 0.00 | 0.00 | 0.00 | 6 | 1011.9 |
| 20260901003847 | 65 | -1 | 7.0 | 16.0 | 0.00 | 0.00 | 0.00 | 6 | 1011.8 |
| 20260901003346 | 65 | 180 | 7.0 | 14.0 | 0.00 | 0.00 | 0.00 | 6 | 1011.7 |
| 20260901002845 | 64 | 180 | 7.0 | 12.0 | 0.00 | 0.00 | 0.00 | 6 | 1011.8 |
| 20260901002345 | 65 | 180 | 9.0 | 16.0 | 0.00 | 0.00 | 0.00 | 6 | 1011.7 |
| 20260901001844 | 65 | 180 | 8.0 | 16.0 | 0.00 | 0.00 | 0.00 | 6 | 1011.7 |
| 20260901001343 | 66 | 180 | 6.0 | 12.0 | 0.00 | 0.00 | 0.00 | 6 | 1011.6 |
| 20260901000843 | 66 | 180 | 7.0 | 13.0 | 0.00 | 0.00 | 0.00 | 6 | 1011.6 |
| 20260901000343 | 66 | 180 | 7.0 | 13.0 | 0.00 | 0.00 | 0.00 | 6 | 1011.5 |
| 20260831235841 | 66 | 180 | 6.0 | 12.0 | 0.00 | 0.00 | 0.19 | 6 | 1011.5 |
| 20260831235340 | 66 | 202 | 6.0 | 12.0 | 0.00 | 0.00 | 0.19 | 6 | 1011.6 |
| 20260831234840 | 66 | 180 | 7.0 | 12.0 | 0.00 | 0.00 | 0.19 | 6 | 1011.5 |
| 20260831234339 | 66 | 180 | 7.0 | 15.0 | 0.00 | 0.00 | 0.19 | 6 | 1011.5 |
| 20260831233838 | 66 | 180 | 7.0 | 17.0 | 0.00 | 0.00 | 0.19 | 6 | 1011.3 |
| 20260831233338 | 66 | 180 | 8.0 | 15.0 | 0.00 | 0.00 | 0.19 | 6 | 1011.3 |
| 20260831232837 | 66 | 180 | 8.0 | 15.0 | 0.00 | 0.00 | 0.19 | 6 | 1011.3 |
| 20260831232336 | 67 | 180 | 6.0 | 10.0 | 0.00 | 0.00 | 0.19 | 5 | 1011.2 |
| 20260831231835 | 67 | 180 | 6.0 | 14.0 | 0.00 | 0.00 | 0.19 | 5 | 1011.2 |
| 20260831231335 | 66 | -1 | 5.0 | 11.0 | 0.00 | 0.00 | 0.19 | 6 | 1011.3 |